Terminal Aerodrome Forecast
Issued by NWS La Crosse, WI

Home | Current Version | Previous Version | Text Only | Print | Product List | Glossary On
Versions: 1 2 3 4 5 6 7 8 9 10 11 12 13 14 15 16 17 18 19 20 21 22 23 24 25 26 27
000
FTUS43 KARX 171926 AAA
TAFRST
TAF AMD
KRST 171926Z 1719/1818 VRB04KT 2SM BR OVC003
      TEMPO 1719/1721 3/4SM BR OVC002
     FM180000 23005KT 1SM BR OVC002
     FM181400 21012G18KT P6SM SCT005=

USA.gov is the U.S. government's official web portal to all federal, state and local government web resources and services.